Погода в Баргузине

Погода в Баргузине : погода сейчас, прогноз погоды и архив. Всё, что Вы хотите узнать о погоде в Баргузине!

Поиск расширенной информации на нашем сайте:

Другие новости

Новости СМИ2

Главная страница сайта

Новости сайта

03.07.2017

Напоминаем, что на нашем специализированном сайте Метеоцентр.Азия вы можете получить высокодетализированные автоматические прогнозы погоды по пунктам России, СНГ и мира в авиационном формате (включающие направление и скорость ветра, видимость, явления погоды, количество и форму облачности, нижнюю и верхнюю границу облачности).


Погода в Баргузине - сегодня

Время (UTC), дата Ветер
(°,м/с) 
Видим.   Явления Облачность Т
(°С)
Тd
(°С)
f(%) Тe
(°С)
Pmin
(гПа)
dP
(гПа)
Po
(мм)
O2
(г/м3)
Тmin Tmax R s Состояние
почвы
18 13.08.18 тихо ()   н/о    3/0 верхняя 
[Ci fib]
+14.8 +12.6 87 +21  1009.7  0.4  715  271           
21 13.08.18 тихо ()   н/о    ясно 
+12.5 +11.4 93 +17  1011.8  1.5  716  274           
00 14.08.18 090 (В) 20000 м    10/4 1000 м средняя, верхняя 
[Sc|Ac trans|Ci fib]
+19.5 +13.7 69 +29  1011.4  717  267  +12.5        сухая 
03 14.08.18 090 (В) 20000 м    10/0 средняя, верхняя 
[Ac trans|Ci fib]
+23.4 +15 59 +33  1010.7  0.1  717  263           
06 14.08.18 080 (В) 20000 м    8/0 верхняя 
[Ci fib]
+27.9 +16.7 51 +41  1008.1  -1.7  716  258           
09 14.08.18 130 (ЮВ) 20000 м    10/0 верхняя 
[Ci fib]
+28.2 +15.1 45 +38  1006.7  -1.3  715  258           
15 14.08.18 160 (Ю) н/о    4/0 верхняя 
[Ci fib]
+18.2 +13 72 +27  1009.5  0.7  715  268           
18 14.08.18 030 (СВ) н/о    10/0 средняя, верхняя 
[Ac trans|Ci fib]
+25.2 +11.9 43 +30  1007.6  0.7  715  261           
21 14.08.18 060 (СВ) н/о    10/8 600 м кучево-дожд., верхняя 
[Cb cap|Ci fib]
+25.3 +11.7 43 +30  1007.8  0.2  715  261           
00 15.08.18 120 (ЮВ) 20000 м    10/8 600 м кучево-дожд., средняя, верхняя 
[Cb cap|Ac trans|Ci fib]
+21.1 +14.6 66 +30  1009.5  0.9  716  265  +17.6        сухая 
03 15.08.18 260 (З) 20000 м  в посл. час ливневой дождь  10/8 600 м кучево-дожд., средняя 
[Cb cap|Ac trans]
+20.8 +17.1 79 +35  1010.6  1.1  717  264           
06 15.08.18 230 (ЮЗ) 20000 м  в посл. час ливневой дождь  10/4 600 м кучево-дожд., средняя, верхняя 
[Cb cap|Ac trans|Ci fib]
+19.8 +15 74 +31  1011.8  0.9  717  266           
09 15.08.18 260 (З) 20000 м    10/0 средняя, верхняя 
[Ac trans|Ci fib]
+19.1 +13.2 69 +27  1012.8  0.9  718  268           
15 15.08.18 270 (З) н/о  в посл. час ливневой дождь  10/6 600 м кучево-дожд., средняя 
[Cb cap|Ac und]
+15.5 +13.5 88 +23  1014.3  0.3  718  271           
18 15.08.18 240 (ЮЗ) н/о  {ливн. осадки}  10/4 600 м кучево-дожд., средняя 
[Cb cap|Ac und]
+14.9 +12.8 87 +22  1014.1  -0.4  718  272           
21 15.08.18 280 (З) н/о    10/3 600 м кучево-дожд., средняя 
[Cb cap|Ac und]
+14 +11.4 84 +19  1014.4  0.2  718  273           
00 16.08.18 250 (З) 20000 м    8/3 600 м кучево-дожд., средняя, верхняя 
[Cb cap|Ac As|Ci fib]
+13.4 +8.8 74 +15  1014.1  -0.5  718  274  +13.2    0.5    влажная 
03 16.08.18 210 (ЮЗ) 20000 м    3/3 600 м кучево-дожд., средняя 
[Cb cap|Ac trans]
+18.7 +6.5 45 +19  1011.9  -1.2  717  269  +13.2         
06 16.08.18 270 (З) 3{11}  20000 м    8/3 600 м кучево-дожд., средняя 
[Cb cap|Ac trans]
+20.6 +3.3 32 +21  1010.8  -0.7  717  268           
09 16.08.18 220 (ЮЗ) 20000 м    5/5 600 м кучево-дожд. 
[Cb cap]
+20.5 +5.9 39 +21  1010.6  -0.2  716  268           
15 16.08.18 280 (З) н/о    4/0 средняя, верхняя 
[Ac trans|Ci fib]
+14 +7.9 67 +15  1012.1  -0.5  717  273           
18 16.08.18 260 (З) н/о    8/0 средняя, верхняя 
[Ac trans|Ci fib]
+13.3 +9.4 77 +16  1010.6  -1.5  715  273           
21 16.08.18 260 (З) н/о    8/8 600 м кучево-дожд. 
[Cb cap]
+14 +9.3 73 +16  1009.5  -0.9  715  272           
00 17.08.18 240 (ЮЗ) 20000 м    10/10 600 м кучево-дожд. 
[Cb cap]
+14.7 +9.8 72 +18  1008.7  -0.6  714  271  +12.9        сухая 
12 17.08.18 220 (ЮЗ) 20000 м  {ливн. осадки}  9/9 300 м кучево-дожд. 
[Cb cap]
+13.4 +12.3 93 +21  1006.9  713  271    +16.2  11     
Время (UTC), дата Ветер
(°,м/с) 
Видим.   Явления Облачность Т
(°С)
Тd
(°С)
f(%) Тe
(°С)
Pmin
(гПа)
dP
(гПа)
Po
(мм)
O2
(г/м3)
Тmin Tmax R s Состояние
почвы

Для получения пояснительной информации подведите курсор к названию столбца.

ПОГОДА в Баргузине - архив

Всё, что Вы хотите узнать о погоде в Баргузине - удобно и подробно!

Выберите нужную дату (начиная с 1 января 2015* года) и нажмите кнопку "Найти".
Будут отображены архивные сводки погоды по пункту Баргузин, начиная с указанной даты.


Отображать данные в формате CSV (для использования в таблицах Excel)


Внимание! Наш архив погоды предназначен исключительно для личного некоммерческого использования в познавательных целях. Если Вам необходимы официальные справки о состоянии погоды (для производственных, юридических, коммерческих и т.п. целей), обращайтесь в органы Росгидромета.

*Примечание: данная дата относится к архиву по метеостанциям СССР (Россия, СНГ, Балтия).
Архив по метеостанциям Зарубежной Европы и Азии (кроме Китая) хранится 10 дней, по другим регионам земного шара (Китай, Африка, Америка, Австралия, Океания) - 1 день.

Баргузин - район местоположения метеостанции


Название, широта, долгота, высота метеостанции:
Баргузин 53.6°ш. 109.6°д. 489 м над ур. моря [Российская Федерация]

Дополнительная информация

В oтличие oт бoльшинства пoгoдных сайтoв мы публикуем пoдрoбную метеoинфoрмацию в детальнoм прoфессиoнальнoм фoрмате.

Характеристики температуры и влажнoсти вoздуха измеряются на высoте 2 м в тени вдали oт зданий и деревьев.
Скoрoсть ветра измеряется на высoте 10 м (на урoвне рoста челoвека скoрoсть ветра ниже в 1.5-2 раза). Если метеoстанция нахoдится в гoрoде или в лесу, тo скoрoсть ветра занижена на 2-4 м/с пo сравнению с oткрытым местoм. Скoрoсть ветра над акватoриями крупных рек и oзёр, а также на вершинах хoлмoв на 2-5 м/с выше, чем в oбычных услoвиях.
Атмoсфернoе давление в разных тoчках местнoсти мoжет значительнo oтличаться oт давления на метеoстанции, в зависимoсти oт услoвий рельефа (при пoдъёме на 10 м давление пoнижается примернo на 1 мм рт.ст.).